Location: Dana
(41.8364°N, 106.7042°W)
Time: 02:44:53
(UTC+00:00)

Altair - Pass Details

Date: 15 May 2026
Orbit: 1501 x 1682 km, 47.2° (Epoch: 6 June)

Event Time Altitude Azimuth Distance (km) Brightness Sun altitude
Rises 16:54:29 0° 293° (WNW) 4,924 9.8 54.4°
Reaches altitude 10° 16:57:39 10° 294° (WNW) 3,943 9.4 54.9°
Maximum altitude 17:07:53 85° 23° (NNE) 1,687 8.9 56.5°
Drops below altitude 10° 17:17:59 10° 114° (ESE) 3,897 10.3 58.1°
Sets 17:21:05 0° 115° (ESE) 4,864 10.6 58.5°
